Precipitable_Water
0.75 0.73 0.72 0.71 0.71 0.70 0.68 0.66 0.59 0.51 0.44 0.39 0.38 0.37 0.36 0.37 0.35 0.28 0.16 0.20 0.29 0.68 0.83 0.84 1.25 1.39 1.61 1.59 1.69 1.63 1.18 0.97 0.94 0.95 1.08 1.25 1.16 1.20 1.24 1.02 1.02 1.10 0.96 1.07 1.34
0.74 0.72 0.69 0.69 0.69 0.68 0.68 0.67 0.63 0.57 0.51 0.42 0.38 0.38 0.36 0.37 0.25 0.17 0.17 0.28 0.50 0.73 0.63 0.50 0.72 1.25 1.34 1.40 1.46 1.31 1.11 1.13 1.21 1.24 1.15 1.22 1.18 1.13 1.08 0.96 0.86 0.97 1.04 1.22 1.33
0.69 0.67 0.65 0.64 0.64 0.63 0.62 0.62 0.63 0.58 0.54 0.46 0.40 0.40 0.38 0.37 0.13 0.25 0.40 0.25 0.50 0.63 0.53 0.56 0.77 1.17 1.07 1.26 1.30 1.31 1.14 1.25 1.31 1.40 1.39 1.25 1.21 1.30 1.14 0.94 1.01 0.86 0.87 1.12 1.23
0.67 0.64 0.62 0.60 0.60 0.60 0.56 0.56 0.57 0.55 0.51 0.49 0.44 0.43 0.40 0.29 0.10 0.32 0.39 0.40 0.52 0.52 0.40 0.38 0.62 0.87 0.93 0.99 1.24 1.14 1.28 1.22 1.31 1.39 1.37 1.22 1.28 1.19 1.15 1.12 1.18 1.12 1.09 1.08 1.11
0.64 0.62 0.59 0.58 0.58 0.57 0.53 0.50 0.52 0.53 0.48 0.44 0.46 0.47 0.29 0.12 0.12 0.34 0.43 0.44 0.45 0.38 0.31 0.33 0.58 0.80 0.87 0.94 1.06 1.11 1.13 1.22 1.25 1.28 1.33 1.35 1.15 1.14 1.15 1.30 1.32 1.24 1.12 1.06 1.11
0.64 0.59 0.56 0.55 0.56 0.55 0.51 0.47 0.50 0.45 0.44 0.44 0.45 0.49 0.26 0.09 0.15 0.40 0.43 0.35 0.27 0.32 0.32 0.35 0.67 0.84 0.89 0.88 0.89 0.97 1.01 1.06 1.07 1.12 1.26 1.15 1.18 1.20 1.20 1.35 1.31 1.20 1.03 1.04 1.09
0.62 0.58 0.56 0.54 0.54 0.55 0.50 0.47 0.46 0.42 0.40 0.43 0.48 0.45 0.24 0.13 0.42 0.43 0.34 0.37 0.37 0.29 0.22 0.36 0.85 0.83 0.83 0.78 0.86 0.88 0.83 0.89 1.03 1.04 1.03 1.14 1.02 0.96 1.23 1.32 1.21 1.18 1.03 0.99 1.08
0.64 0.61 0.58 0.53 0.52 0.53 0.50 0.49 0.51 0.46 0.40 0.41 0.48 0.41 0.14 0.22 0.38 0.32 0.28 0.26 0.29 0.36 0.42 0.61 0.90 0.75 0.72 0.76 0.73 0.70 0.76 0.72 0.88 0.98 1.09 1.05 0.80 1.06 1.27 1.27 1.16 1.15 1.00 0.95 1.02
0.68 0.65 0.61 0.55 0.52 0.52 0.51 0.53 0.54 0.52 0.42 0.42 0.34 0.39 0.19 0.42 0.27 0.27 0.24 0.19 0.21 0.27 0.43 0.69 0.69 0.58 0.61 0.59 0.53 0.58 0.59 0.67 0.78 0.96 0.91 0.97 0.87 1.10 1.29 1.21 1.16 1.16 1.02 0.90 0.97
0.69 0.65 0.61 0.56 0.53 0.53 0.54 0.54 0.55 0.53 0.58 0.43 0.41 0.33 0.36 0.31 0.34 0.27 0.23 0.21 0.20 0.25 0.39 0.46 0.44 0.42 0.48 0.52 0.38 0.41 0.51 0.67 0.69 0.71 0.86 0.82 0.88 1.07 1.18 1.19 1.16 1.17 1.01 0.93 0.89
0.72 0.68 0.62 0.58 0.57 0.58 0.55 0.43 0.28 0.26 0.35 0.18 0.25 0.34 0.35 0.39 0.33 0.28 0.22 0.20 0.22 0.21 0.27 0.36 0.31 0.26 0.38 0.51 0.54 0.49 0.54 0.62 0.67 0.68 0.68 0.76 0.87 0.99 1.12 1.17 1.15 1.15 1.00 0.98 0.90
0.76 0.71 0.64 0.61 0.58 0.64 0.58 0.36 0.34 0.35 0.19 0.25 0.26 0.33 0.36 0.35 0.23 0.23 0.28 0.18 0.18 0.14 0.22 0.23 0.22 0.34 0.38 0.47 0.51 0.49 0.46 0.56 0.64 0.63 0.73 0.69 0.80 0.98 1.06 1.09 1.17 1.13 1.07 1.06 1.03
0.79 0.74 0.67 0.63 0.60 0.63 0.50 0.43 0.51 0.39 0.20 0.16 0.21 0.25 0.21 0.24 0.18 0.19 0.21 0.20 0.17 0.14 0.17 0.19 0.23 0.34 0.32 0.36 0.42 0.46 0.45 0.48 0.54 0.52 0.86 0.84 0.80 0.94 1.09 1.15 1.22 1.21 1.18 1.17 1.10
0.81 0.77 0.70 0.64 0.52 0.56 0.46 0.53 0.52 0.37 0.16 0.13 0.14 0.17 0.18 0.18 0.14 0.21 0.22 0.19 0.16 0.13 0.15 0.17 0.24 0.20 0.26 0.27 0.35 0.32 0.46 0.49 0.51 0.41 0.58 0.90 0.61 0.87 0.98 1.01 1.12 1.17 1.19 1.24 1.19
0.82 0.77 0.73 0.68 0.52 0.52 0.51 0.53 0.48 0.40 0.12 0.22 0.18 0.24 0.19 0.15 0.15 0.16 0.22 0.20 0.15 0.14 0.15 0.13 0.14 0.17 0.18 0.20 0.29 0.30 0.43 0.46 0.48 0.37 0.42 0.64 0.66 0.72 0.96 0.92 1.00 1.12 1.20 1.23 1.33
0.82 0.77 0.72 0.63 0.61 0.60 0.56 0.52 0.40 0.23 0.15 0.23 0.24 0.22 0.19 0.17 0.16 0.16 0.17 0.21 0.20 0.16 0.15 0.13 0.17 0.18 0.17 0.21 0.26 0.29 0.34 0.38 0.46 0.40 0.30 0.38 0.56 0.63 0.76 0.80 0.89 1.10 1.17 1.25 1.34
0.80 0.74 0.69 0.67 0.48 0.65 0.54 0.44 0.27 0.20 0.27 0.22 0.23 0.23 0.21 0.19 0.18 0.16 0.14 0.14 0.15 0.12 0.12 0.13 0.13 0.17 0.19 0.17 0.22 0.23 0.27 0.26 0.29 0.29 0.25 0.36 0.41 0.53 0.73 0.88 0.93 0.96 1.07 1.20 1.33
0.78 0.71 0.70 0.67 0.65 0.59 0.49 0.35 0.26 0.27 0.24 0.27 0.26 0.24 0.23 0.22 0.20 0.19 0.16 0.15 0.17 0.16 0.11 0.10 0.10 0.15 0.20 0.19 0.20 0.21 0.24 0.25 0.24 0.28 0.25 0.35 0.42 0.50 0.73 0.82 1.00 1.03 1.09 1.19 1.29
0.75 0.65 0.65 0.65 0.69 0.62 0.41 0.27 0.30 0.30 0.30 0.28 0.27 0.23 0.23 0.25 0.24 0.22 0.19 0.18 0.20 0.17 0.13 0.12 0.12 0.20 0.21 0.24 0.24 0.22 0.21 0.32 0.31 0.35 0.31 0.29 0.34 0.42 0.52 0.58 0.70 0.87 1.00 1.07 1.20
0.60 0.63 0.65 0.76 0.68 0.52 0.36 0.31 0.33 0.35 0.34 0.32 0.26 0.28 0.23 0.25 0.23 0.24 0.22 0.25 0.23 0.25 0.24 0.19 0.13 0.17 0.19 0.25 0.27 0.25 0.29 0.26 0.31 0.25 0.25 0.28 0.27 0.30 0.45 0.51 0.55 0.68 0.79 0.97 1.12
0.60 0.58 0.75 0.76 0.64 0.42 0.35 0.33 0.29 0.35 0.36 0.32 0.30 0.28 0.28 0.27 0.26 0.25 0.26 0.29 0.31 0.29 0.28 0.24 0.18 0.16 0.20 0.22 0.21 0.24 0.25 0.28 0.31 0.30 0.25 0.24 0.26 0.43 0.52 0.65 0.60 0.59 0.72 0.87 1.07
0.59 0.56 0.78 0.70 0.44 0.46 0.42 0.41 0.35 0.33 0.35 0.35 0.32 0.29 0.26 0.29 0.30 0.27 0.28 0.29 0.34 0.32 0.26 0.28 0.24 0.18 0.19 0.25 0.27 0.29 0.30 0.29 0.23 0.24 0.29 0.29 0.28 0.54 0.60 0.71 0.75 0.70 0.81 0.97 1.10
0.59 0.66 0.79 0.64 0.40 0.38 0.42 0.38 0.36 0.34 0.34 0.32 0.30 0.31 0.29 0.23 0.23 0.31 0.31 0.37 0.37 0.31 0.26 0.28 0.23 0.16 0.18 0.24 0.29 0.29 0.33 0.34 0.31 0.28 0.24 0.23 0.28 0.68 0.71 0.80 0.83 0.83 0.89 0.99 1.05
0.71 0.52 0.58 0.51 0.51 0.41 0.37 0.37 0.37 0.42 0.38 0.39 0.39 0.36 0.26 0.26 0.29 0.27 0.30 0.37 0.39 0.39 0.39 0.32 0.25 0.21 0.19 0.23 0.28 0.28 0.32 0.34 0.32 0.25 0.24 0.25 0.26 0.39 0.80 0.88 0.92 1.04 1.13 1.12 1.14
0.75 0.58 0.55 0.41 0.41 0.44 0.44 0.40 0.36 0.35 0.40 0.38 0.32 0.27 0.24 0.20 0.23 0.24 0.31 0.33 0.36 0.38 0.38 0.33 0.24 0.26 0.26 0.29 0.30 0.28 0.31 0.33 0.31 0.34 0.25 0.25 0.27 0.36 0.66 0.92 1.08 1.16 1.11 1.14 1.21
0.61 0.60 0.62 0.52 0.50 0.44 0.42 0.38 0.33 0.34 0.34 0.29 0.27 0.29 0.27 0.23 0.24 0.22 0.26 0.31 0.30 0.36 0.35 0.37 0.26 0.28 0.25 0.29 0.27 0.25 0.31 0.35 0.43 0.46 0.34 0.30 0.31 0.58 0.88 1.08 1.09 1.08 1.07 1.00 1.17
0.75 0.70 0.61 0.52 0.49 0.41 0.38 0.37 0.33 0.34 0.35 0.34 0.28 0.25 0.24 0.26 0.30 0.30 0.28 0.30 0.32 0.31 0.30 0.30 0.28 0.24 0.18 0.25 0.26 0.21 0.39 0.44 0.50 0.58 0.54 0.32 0.57 0.82 0.87 1.06 1.14 1.07 1.08 1.04 1.19
Wind_Speed
14 14 15 15 16 15 15 15 14 14 14 14 13 12 12 12 12 11 12 12 13 13 11 11 11 9 8 5 5 7 8 7 8 7 7 9 8 10 8 12 8 7 9 14 16
15 15 16 16 17 17 17 16 15 15 15 14 14 13 12 12 12 13 13 13 13 15 13 13 13 11 8 7 6 6 9 8 6 9 8 9 8 10 9 12 7 8 13 15 15
16 16 16 17 18 18 17 17 16 16 16 15 14 14 13 12 11 12 12 15 15 16 13 13 13 13 9 8 8 7 10 9 9 8 9 8 6 8 10 8 6 12 13 15 15
17 17 17 18 18 18 18 16 15 15 16 15 14 14 13 12 11 11 12 15 15 16 15 15 15 14 11 10 10 9 11 9 8 10 9 9 7 9 12 5 8 10 12 15 15
18 18 18 19 19 19 17 16 15 15 14 14 14 13 13 13 15 13 14 15 15 16 17 18 17 16 12 10 11 13 11 11 8 11 8 9 7 9 12 4 9 9 11 14 14
19 19 19 19 19 19 18 16 16 15 14 13 13 13 13 15 14 15 15 15 15 16 17 19 19 17 15 13 13 12 10 11 10 12 11 10 9 9 8 9 10 11 10 13 13
20 20 20 20 20 20 18 17 16 15 13 12 11 12 14 16 14 15 18 16 16 16 17 20 19 17 15 14 13 12 10 8 10 11 11 15 9 11 9 10 11 10 10 12 13
21 21 21 20 20 19 18 17 17 13 11 9 9 10 13 15 16 18 18 18 18 18 19 19 20 19 17 17 13 11 10 8 9 10 10 15 12 7 11 12 10 10 11 13 13
22 22 21 20 20 19 18 17 12 9 7 7 7 8 11 13 16 17 19 19 19 18 21 20 19 20 18 16 14 12 12 12 9 11 12 10 9 12 13 12 10 10 9 12 13
23 22 21 20 19 18 17 12 9 7 7 6 7 6 9 9 13 15 18 20 19 19 19 20 18 19 18 17 17 15 13 12 11 7 14 14 12 16 15 13 11 9 9 11 12
23 22 21 20 18 16 14 9 9 9 9 8 7 8 8 8 11 14 16 18 18 18 20 19 19 21 22 19 18 16 16 14 15 13 11 14 15 19 18 15 12 10 10 10 10
23 23 22 20 18 14 10 8 8 10 9 9 10 10 10 9 9 13 15 17 18 19 19 17 21 21 21 22 20 18 17 16 16 13 14 14 17 21 21 18 15 13 12 10 9
24 22 21 19 16 11 10 8 10 8 6 7 8 9 8 8 10 12 15 16 17 19 19 20 18 20 20 22 20 20 19 18 18 13 11 12 12 16 19 18 16 15 14 12 10
24 23 21 18 11 11 10 9 10 6 3 6 6 8 8 8 7 12 14 14 15 20 20 19 20 20 20 22 21 20 20 19 19 14 15 13 14 17 18 21 18 18 17 16 12
24 22 20 15 13 11 10 10 8 5 3 4 5 5 7 9 8 9 12 11 15 16 18 19 18 20 22 22 21 21 19 20 19 18 17 17 13 16 19 21 22 22 20 19 18
25 22 19 12 11 11 10 8 6 4 4 4 4 5 6 8 9 9 10 11 13 16 16 20 20 20 21 22 22 21 19 16 17 16 17 20 17 17 20 23 24 22 23 22 19
25 21 16 11 9 9 9 7 5 4 5 5 5 5 5 7 9 10 12 12 12 14 16 17 20 21 21 21 20 20 18 17 18 18 20 19 17 20 24 22 23 23 22 22 21
24 19 12 10 9 8 7 6 5 5 5 4 5 4 3 5 8 10 13 13 12 11 14 16 17 19 18 22 23 22 23 21 20 20 20 16 20 16 19 20 22 24 21 21 23
22 14 9 7 8 7 7 7 8 7 6 6 5 4 6 6 6 7 9 11 11 14 15 15 17 17 19 20 21 21 21 23 19 16 15 19 20 18 20 20 21 22 22 23 22
18 12 8 6 6 6 6 9 8 8 7 6 6 7 6 8 6 6 7 9 12 10 14 15 15 17 18 18 18 21 20 19 19 20 19 17 18 18 15 18 20 21 23 23 22
14 8 7 7 6 5 6 9 8 6 7 7 8 8 8 9 8 7 8 9 9 11 10 12 14 17 16 16 18 18 18 18 20 20 20 17 19 18 19 18 19 21 23 24 22
9 5 5 6 5 6 7 8 7 6 6 7 7 8 9 10 9 9 9 10 10 11 12 13 15 16 19 18 18 18 17 19 20 22 20 19 19 17 16 18 18 20 18 19 20
7 5 5 6 5 6 7 6 5 6 7 8 9 9 9 9 10 10 12 12 11 11 12 14 13 14 14 15 16 16 16 18 22 21 23 20 20 17 14 13 15 18 19 19 19
7 6 6 5 5 6 7 7 8 7 7 7 9 9 9 10 10 11 13 13 13 11 12 14 14 15 18 18 18 18 18 18 19 20 22 24 22 18 15 12 12 13 16 17 18
7 7 6 7 7 7 8 8 8 9 9 8 9 9 10 10 12 13 13 14 14 12 13 12 13 15 17 20 19 20 19 18 20 22 23 24 23 21 20 16 14 13 13 13 14
8 7 7 7 8 8 8 9 8 8 9 9 8 8 7 9 11 13 13 13 15 15 13 13 15 15 15 17 20 20 17 17 17 20 24 21 22 19 19 19 15 13 12 9 11
9 8 8 9 9 8 10 9 9 8 7 7 8 8 7 9 11 13 13 15 17 15 15 15 14 15 17 15 16 17 17 17 17 16 21 23 20 20 18 18 15 15 13 11 11
Wind_Direction
330 328 327 326 323 319 313 307 300 296 291 287 284 280 274 269 264 244 235 223 210 200 199 192 194 186 179 178 154 154 150 146 145 146 137 127 119 132 114 128 123 122 126 139 138
331 328 327 326 323 318 312 306 299 294 290 286 279 277 273 268 253 240 229 215 206 197 200 196 195 187 183 176 168 165 168 168 173 155 140 148 133 144 114 137 112 110 125 140 140
331 330 328 326 324 320 315 307 299 292 288 282 277 271 269 263 245 231 225 211 206 202 203 201 193 193 198 189 200 173 171 160 160 159 156 156 162 158 139 148 135 133 140 150 147
330 328 327 327 326 324 319 312 303 295 287 279 275 268 261 245 229 225 210 202 202 204 207 201 197 195 201 197 188 181 177 168 172 161 160 159 145 158 166 138 146 148 146 152 154
329 327 325 326 327 325 320 314 309 301 290 280 271 264 249 237 230 221 209 206 207 209 207 203 197 200 203 201 190 196 198 196 195 191 183 167 171 164 185 143 150 149 151 161 161
329 326 324 324 325 324 320 313 308 303 293 283 269 257 244 235 225 218 211 210 212 210 207 203 202 204 212 208 196 197 210 216 214 199 198 183 181 164 178 174 164 163 163 169 171
329 327 323 322 321 322 318 314 309 302 291 282 267 249 240 230 216 216 215 214 214 211 207 204 202 206 209 212 206 213 218 222 203 210 208 191 190 200 168 164 166 178 176 173 176
328 325 324 321 320 320 318 313 307 300 291 274 263 248 239 225 226 222 218 221 217 214 209 205 209 214 209 213 214 215 211 210 207 185 184 177 196 188 174 165 171 177 184 185 182
325 324 322 320 319 318 317 315 309 305 293 269 260 252 241 235 225 224 220 218 213 212 209 212 213 211 212 206 212 212 208 208 192 195 193 195 200 193 178 175 173 179 185 192 192
324 322 321 319 317 316 316 309 303 299 299 273 256 250 239 232 226 222 219 214 212 213 208 210 211 210 210 205 208 207 212 206 201 215 204 205 212 196 191 187 185 186 190 194 196
322 321 318 315 313 313 312 300 304 297 290 259 249 245 236 244 224 218 213 209 210 210 208 214 211 213 214 210 210 213 209 215 218 224 227 222 211 199 198 199 198 196 196 194 199
321 318 315 311 307 305 301 298 293 290 291 265 246 239 243 239 232 222 212 208 209 213 212 216 217 215 217 215 212 215 218 222 227 237 227 224 217 206 202 204 203 200 202 201 200
319 317 315 308 298 288 289 287 301 290 281 271 232 227 236 214 223 223 210 211 212 212 214 211 217 215 215 219 220 217 214 219 223 246 243 208 218 205 209 210 214 215 214 207 204
319 316 313 306 279 285 275 286 295 270 286 260 234 233 218 215 228 213 210 209 217 214 213 220 220 217 218 219 213 223 209 222 225 230 221 219 221 220 209 217 218 219 218 216 208
317 314 310 297 274 269 273 282 275 252 268 224 215 220 221 210 219 219 214 215 213 212 209 221 216 216 217 217 212 218 219 224 225 228 222 224 222 226 214 217 220 220 220 218 216
318 313 308 289 268 261 276 270 243 247 239 234 213 223 211 225 229 219 210 215 219 215 223 224 223 216 219 218 214 215 220 221 221 221 223 226 218 230 214 214 221 220 219 218 217
317 311 298 277 263 262 267 240 240 225 245 256 238 232 227 234 234 215 214 216 217 219 228 230 226 225 219 219 215 209 209 220 222 222 224 226 224 227 221 221 215 215 217 216 217
319 311 291 271 258 259 245 228 231 240 235 237 234 213 221 258 245 238 222 228 228 222 219 218 227 219 217 216 212 211 208 211 218 219 228 222 224 229 222 223 219 223 222 220 219
320 308 283 272 247 245 233 225 222 224 238 255 233 222 264 265 248 250 225 232 237 227 217 216 224 222 220 219 210 213 214 219 212 226 227 228 236 238 230 227 227 224 218 218 218
318 301 268 265 238 247 231 228 230 236 244 243 238 253 268 276 267 249 237 237 241 240 226 225 224 222 225 215 215 215 214 213 220 214 222 232 230 223 230 235 228 224 217 216 218
313 290 273 250 251 250 223 229 234 248 240 248 251 256 252 265 260 246 247 236 241 240 222 227 221 224 219 208 216 222 221 218 212 216 215 224 229 222 235 237 228 222 222 217 217
320 295 272 252 256 246 234 233 236 253 258 257 258 261 258 263 257 241 239 244 262 243 231 236 220 222 219 223 221 215 217 214 212 219 219 219 228 230 236 237 232 224 220 213 213
318 288 280 246 248 252 251 233 239 257 271 261 272 269 262 256 242 248 249 258 270 253 240 239 235 228 232 223 216 213 222 222 217 218 219 217 226 226 235 239 241 219 213 213 213
304 290 278 245 245 234 246 252 245 270 272 272 271 268 258 256 261 250 256 252 254 259 246 239 231 221 216 219 218 223 230 225 217 217 220 223 225 228 226 224 228 212 209 211 220
296 283 257 254 257 258 249 255 254 267 270 278 280 274 258 257 253 254 254 251 248 263 248 235 229 233 231 230 226 224 230 235 225 223 218 223 218 225 216 213 217 208 209 217 219
284 274 263 261 267 257 261 266 255 264 267 270 260 272 263 250 245 248 249 246 243 253 245 249 236 235 236 235 233 230 238 227 222 229 224 222 217 214 212 204 208 213 214 219 226
275 267 258 263 268 259 255 255 259 258 282 261 244 259 262 255 251 252 248 247 246 247 247 241 240 235 237 239 235 225 231 220 216 224 223 214 217 207 202 203 211 219 223 230 228